Location: Newark
(25.1987°N, 100.3705°W)
Time: 23:12:41
(UTC+00:00)

LightSail 2 - Visible Passes

Search period start: 24 June 2021 00:00
Search period end: 04 July 2021 00:00
Orbit: 681 x 704 km, 24.0° (Epoch: 24 June)

Date Brightness Start Highest point End Pass type
(mag) Time Alt. Az. Time Alt. Az. Time Alt. Az.
24 Jun 5.4 10:15:55 39° SW 10:17:19 51° SSE 10:22:14 10° E visible
25 Jun 6.8 09:15:16 25° ESE 09:15:16 25° ESE 09:17:37 10° E visible
25 Jun 5.1 10:53:47 16° WSW 10:57:48 73° S 11:02:52 10° E visible
26 Jun 5.0 09:53:07 62° S 09:53:19 63° S 09:58:20 10° E visible
27 Jun 7.3 08:52:29 17° E 08:52:29 17° E 08:53:45 10° E visible
27 Jun 5.0 10:31:01 26° W 10:33:50 78° S 10:38:54 10° E visible
28 Jun 5.5 09:30:24 53° ESE 09:30:24 53° ESE 09:34:21 10° E visible
28 Jun 5.1 11:09:19 10° W 11:14:21 75° S 11:19:25 10° E visible
29 Jun 4.9 10:08:23 47° WSW 10:09:50 79° S 10:14:53 10° E visible
30 Jun 6.6 09:07:53 29° E 09:07:53 29° E 09:10:20 10° E visible
30 Jun 5.1 10:46:25 17° W 10:50:19 67° S 10:55:20 10° ESE visible
01 Jul 5.0 09:46:02 73° SSE 09:46:02 73° SSE 09:50:49 10° E visible
01 Jul 5.5 11:25:56 10° W 11:30:43 44° SSW 11:35:31 10° ESE visible
02 Jul 7.6 08:45:46 13° E 08:45:46 13° E 08:46:16 10° E visible
02 Jul 5.1 10:24:19 34° WSW 10:26:13 56° SSW 10:31:09 10° ESE visible
03 Jul 6.5 09:24:11 29° ESE 09:24:11 29° ESE 09:26:41 10° ESE visible
03 Jul 5.8 11:02:45 14° WSW 11:06:32 34° SSW 11:11:04 10° SE visible
